Location: Fieux
(44.0915°N, 0.4226°E)
Time: 03:05:09
(UTC+00:00)

Daily predictions for brighter satellites

Satellite Brightness Start Highest point End
(mag) Time Altitude Azimuth Time Altitude Azimuth Time Altitude Azimuth
Cosmos 2344 4.3 02:37:40 47° ENE 02:37:40 47° ENE 02:43:13 10° NE
USA 234 4.2 02:55:07 10° NE 02:59:22 39° NNE 02:59:22 39° NNE
ADEOS Rocket 4.4 02:56:54 10° ESE 03:01:34 29° ENE 03:06:21 10° N
Cosmos 1833 Rocket 3.7 03:33:51 39° SE 03:34:54 43° ESE 03:40:14 10° NE
NOSS 3-2 (C) 3.7 03:43:21 58° N 03:43:21 58° N 03:48:48 10° NE
CENTAUR R/B 2.6 03:50:12 64° NNW 03:50:12 64° NNW 03:56:47 10° NE
Cosmos 1656 3.9 03:55:16 57° SSE 03:55:16 57° SSE 03:59:44 10° SSE
Cosmos 2082 Rocket 3.5 03:52:45 10° S 03:57:51 37° ESE 04:02:59 10° NE
Cosmos 1461 3.9 03:57:50 45° SE 03:58:08 46° ESE 04:02:37 10° NE
PSLV R/B 4.5 04:02:41 10° NNE 04:05:31 41° NNE 04:05:31 41° NNE
ISS -1.7 04:09:06 27° ENE 04:09:06 27° ENE 04:10:48 10° ENE
CZ-2C R/B 2.2 04:03:43 10° NNE 04:08:43 90° ENE 04:08:51 85° SSW
Lacrosse 4 Rocket 3.0 04:18:22 23° N 04:18:22 23° N 04:20:12 10° NNE
Cosmos 1697 Rocket 2.6 04:16:50 24° NNW 04:20:22 88° ENE 04:26:03 10° SSE
COSMOS 2406 3.1 04:21:37 56° WSW 04:22:27 63° WNW 04:28:06 10° NNE
Meteor 1-31 Rocket 4.4 04:19:36 10° NNE 04:23:14 35° E 04:26:50 10° SSE
Lacrosse 5 rocket 1.7 04:25:46 46° NNE 04:25:46 46° NNE 04:28:39 10° NE
Meteor 2-5 Rocket 3.9 04:20:46 10° S 04:26:25 74° E 04:32:15 10° NNE
[s.n.46705] 4.5 04:29:56 30° ENE 04:29:56 30° ENE 04:31:32 10° ENE
[s.n.46692] 4.5 04:30:02 30° ENE 04:30:02 30° ENE 04:31:38 10° ENE
[s.n.46686] 4.5 04:30:07 30° ENE 04:30:07 30° ENE 04:31:43 10° ENE
[s.n.46716] 4.5 04:30:12 30° ENE 04:30:12 30° ENE 04:31:48 10° ENE
[s.n.46722] 4.5 04:30:17 30° ENE 04:30:17 30° ENE 04:31:54 10° ENE
[s.n.46689] 4.5 04:30:23 30° ENE 04:30:23 30° ENE 04:32:00 10° ENE
[s.n.46681] 4.5 04:30:28 30° ENE 04:30:28 30° ENE 04:32:05 10° ENE
USA 238 DEB 4.4 04:28:30 32° NW 04:29:29 33° NW 04:35:41 10° NNE
USA 238 4.4 04:28:35 32° NW 04:29:35 33° NW 04:35:47 10° NNE
FENGYUN 3A 4.0 04:25:20 10° NNE 04:30:46 66° ESE 04:36:10 10° S
NOSS 3-2 (A) 4.5 04:31:50 27° NW 04:32:35 28° NNW 04:38:15 10° NNE
PAYLOAD A 4.2 04:30:18 10° N 04:35:12 47° WNW 04:35:51 45° W
ATLAS 3B R/B 2.5 04:32:59 19° SW 04:37:52 89° SE 04:44:34 10° NE
ERS-2 1.9 04:35:16 10° S 04:38:54 76° WSW 04:39:16 67° NW
Cosmos 1726 Rocket 3.9 04:35:51 10° N 04:40:18 68° E 04:44:45 10° SSE
Cosmos 967 Rocket 4.4 04:37:13 16° NW 04:42:25 84° WSW 04:48:40 10° SSE
Cosmos 1980 Rocket 2.3 04:37:32 10° NNW 04:43:09 73° ENE 04:48:45 10° SSE
USA 234 4.4 04:38:05 10° NE 04:43:36 30° N 04:46:42 21° NW
Abrixas rocket 2.3 04:43:59 58° ENE 04:43:59 58° ENE 04:46:29 10° ESE
Meteor 2-13 Rocket 4.4 04:38:34 10° S 04:44:44 89° W 04:50:54 10° N
Cosmos 2228 2.9 04:41:04 10° N 04:45:27 79° W 04:49:50 10° S
Cosmos 1092 Rocket 4.0 04:39:33 10° S 04:45:43 83° E 04:51:58 10° N
Geosat 3.9 04:41:26 10° SSE 04:46:27 74° WSW 04:51:09 12° NNW
ADEOS Rocket 3.1 04:41:53 10° SSW 04:46:59 39° W 04:52:12 10° NNW
Nadezhda 4 Rocket 3.9 04:43:59 10° SSW 04:49:59 58° WNW 04:56:03 10° N
Cosmos 2344 4.4 04:47:42 26° WNW 04:50:38 33° NNW 04:58:07 10° NNE
ADEOS 3.5 04:46:35 10° NNE 04:51:50 80° WNW 04:57:03 10° SSW
Cosmos 44 Rocket 4.4 04:53:07 27° WSW 04:53:07 27° WSW 04:56:59 10° S
CZ-3 R/B 4.0 04:35:58 17° WSW 04:53:00 39° SSW 05:00:38 10° SE
Aureole 3 4.2 04:49:41 10° N 04:53:54 65° E 04:59:16 10° SSE
SAR-Lupe-1 4.2 04:51:23 10° SSE 04:54:56 75° ENE 04:58:31 10° N
Cosmos 1606 Rocket 3.5 04:51:43 10° NNW 04:56:10 64° W 05:00:34 10° S
Cosmos 1400 Rocket 2.7 04:52:50 10° N 04:56:47 84° ENE 05:00:40 10° S
CZ-4B R/B 3.8 04:53:16 10° NNE 04:57:29 89° ESE 05:01:29 10° SSW
Cosmos 2360 4.2 04:55:28 10° NNW 05:01:02 56° WSW 05:06:33 10° S
TELKOM 3 3.9 05:01:47 43° WNW 05:02:35 59° NNW 05:06:23 10° ENE
COSMO-SKYMED 1 2.8 05:00:52 10° SSE 05:05:11 74° ENE 05:09:32 10° N
CZ-4B R/B 1.8 05:04:37 10° S 05:07:55 41° W 05:10:16 17° NW
Cosmos 1300 2.8 05:06:36 10° NNW 05:10:19 49° W 05:14:00 10° S
Cosmos 1627 Rocket 4.5 05:03:55 10° S 05:10:20 81° W 05:16:45 10° N
ARGOS Delta rocket 4.1 05:05:29 10° N 05:10:56 83° WNW 05:16:25 10° SSW
ALOS 2.4 05:08:58 10° N 05:13:29 49° WNW 05:17:58 10° SW
Cosmos 2278 3.7 05:08:00 10° NNW 05:13:36 64° WSW 05:19:09 10° S
Cosmos 1689 Rocket 1.9 05:11:40 10° SSE 05:14:35 90° E 05:17:32 10° NNW
Cosmos 1626 3.0 05:14:34 26° W 05:14:56 26° WNW 05:18:05 10° NNW
Cosmos 2322 Rocket 3.8 05:09:50 10° N 05:14:58 34° NE 05:20:04 10° ESE
Meteor 2-10 Rocket 4.1 05:10:04 10° N 05:15:02 59° ENE 05:20:04 10° SSE
SL-14 R/B 3.9 05:11:26 10° SW 05:15:05 34° WNW 05:18:48 10° N
Cosmos 1833 Rocket 3.4 05:15:37 18° WSW 05:18:57 32° NW 05:23:59 10° N
Meteor 2-8 Rocket 4.5 05:14:40 10° N 05:20:53 89° W 05:27:02 10° S
Cosmos 1992 Rocket 4.4 05:16:04 10° NW 05:20:56 41° WSW 05:25:48 10° S
Cosmos 2084 3.4 05:19:07 10° SW 05:23:25 67° NW 05:27:49 10° NNE
deb Chang Zheng 4 3.9 05:19:28 10° N 05:23:29 42° WNW 05:27:30 10° SW
BREEZE-M DEB (TANK) 3.7 05:25:58 12° SW 05:25:58 12° SW 05:26:59 10° SSW
METEOR-M 4.3 05:21:20 10° N 05:26:30 52° WNW 05:31:39 10° SW
H-2A R/B 4.2 05:24:24 10° NNE 05:28:31 39° E 05:32:28 10° SSE
Cosmos 1315 Rocket 3.3 05:24:29 10° N 05:28:36 66° E 05:32:42 10° SSE
SJ-12 3.9 05:25:13 10° N 05:29:17 61° WNW 05:33:18 10° SSW
Elektron 1 4.3 05:27:38 17° WSW 05:29:37 37° NW 05:32:22 10° NNE
Okean 1-7 Rocket 3.6 05:25:16 10° SSW 05:29:46 62° W 05:34:16 10° N
Cosmos 2058 Rocket 3.2 05:26:15 10° NNW 05:30:40 56° W 05:35:02 10° S
SL-19 R/B 4.1 05:28:04 10° N 05:30:41 34° WNW 05:33:20 10° SW
Cosmos 1484 Rocket 3.8 05:29:32 10° NNW 05:32:44 25° WNW 05:35:52 10° SW
ASTRO F (AKARI) 4.3 05:29:35 10° NNE 05:33:05 80° WNW 05:36:24 10° SSW
H-2A R/B 3.4 05:31:34 10° NNE 05:35:21 60° E 05:39:10 10° S
Cosmos 1461 4.2 05:34:15 14° W 05:37:27 27° NW 05:41:30 10° NNE
Cosmos 1553 Rocket 3.9 05:31:57 10° N 05:38:06 85° W 05:44:10 10° S
Meteor 1-24 Rocket 4.2 05:32:55 10° SW 05:38:08 38° WNW 05:43:33 10° N
Cosmos 1892 Rocket 4.1 05:34:26 10° SW 05:38:25 35° WNW 05:42:28 10° N
USA 290 3.7 05:39:33 13° W 05:41:12 18° WNW 05:43:34 10° NNW
Meteor PRIRODA 3.7 05:38:17 10° N 05:41:53 54° WNW 05:45:27 10° SSW
Cosmos 2082 Rocket 2.8 05:36:49 10° WSW 05:41:56 35° NW 05:47:05 10° N
CENTAUR R/B 4.0 05:37:24 12° WNW 05:41:57 23° NNW 05:47:39 10° NNE
CREW DRAGON DEMO-1 DEB 3.1 05:40:30 12° NW 05:43:15 60° NNE 05:46:13 10° ESE
Cosmos 614 Rocket 4.0 05:38:39 10° SSW 05:43:44 61° WNW 05:48:49 10° NNE
ISS -2.4 05:42:04 13° WNW 05:44:30 27° NNW 05:47:27 10° NE
CZ-2C R/B 4.2 05:44:03 10° NNW 05:46:08 13° WNW 05:48:12 10° W
Cosmos 2026 Rocket 4.3 05:41:02 10° SSW 05:47:07 46° WNW 05:53:14 10° N
SL-16 R/B 2.5 05:45:39 10° NNW 05:51:22 76° ENE 05:57:01 10° SSE
Cosmos 2251 Rocket 4.4 05:46:54 10° WSW 05:51:34 29° WNW 05:56:14 10° N
SKYMED 2 4.2 05:49:25 10° SSW 05:53:22 33° W 05:57:19 10° NNW
Meteor 2-15 4.4 05:48:32 10° NNW 05:54:37 75° W 06:00:38 10° S
Meteor 1-31 Rocket 4.2 05:54:32 10° NNW 05:57:24 20° WNW 06:00:15 10° WSW
Cosmos 1455 2.2 05:54:42 10° NNW 05:58:34 71° W 06:02:24 10° S
[s.n.46727] 4.1 05:56:40 10° WNW 05:58:54 22° NNW 06:01:08 10° NE
[s.n.46723] 4.1 05:56:41 10° WNW 05:58:59 22° NNW 06:01:17 10° NE
[s.n.46707] 4.1 05:56:51 10° WNW 05:59:05 22° NNW 06:01:19 10° NE
[s.n.46708] 4.1 05:56:57 10° WNW 05:59:10 22° NNW 06:01:25 10° NE
[s.n.46719] 4.1 05:57:03 10° WNW 05:59:16 22° NNW 06:01:31 10° NE
[s.n.46724] 4.1 05:57:07 10° WNW 05:59:21 22° NNW 06:01:35 10° NE
[s.n.46687] 4.1 05:57:13 10° WNW 05:59:26 21° NNW 06:01:41 10° NE
[s.n.46696] 4.1 05:57:19 10° WNW 05:59:33 21° NNW 06:01:46 10° NE
[s.n.46720] 4.1 05:57:25 10° WNW 05:59:38 21° NNW 06:01:52 10° NE
[s.n.46676] 4.1 05:57:30 10° WNW 05:59:43 21° NNW 06:01:57 10° NE
[s.n.46721] 4.1 05:57:36 10° WNW 05:59:49 21° NNW 06:02:03 10° NE
[s.n.46728] 4.2 05:57:41 10° WNW 05:59:54 21° NNW 06:02:08 10° NE
[s.n.46690] 4.2 05:57:46 10° WNW 06:00:00 21° NNW 06:02:14 10° NE
[s.n.46694] 4.2 05:57:50 10° WNW 06:00:03 21° NNW 06:02:17 10° NE
[s.n.46702] 4.2 05:57:58 10° WNW 06:00:11 21° NNW 06:02:25 10° NE
[s.n.46679] 4.2 05:58:01 10° WNW 06:00:15 21° NNW 06:02:29 10° NE
[s.n.46704] 4.2 05:58:03 10° WNW 06:00:20 22° NNW 06:02:37 10° NE
[s.n.46712] 4.2 05:58:10 10° WNW 06:00:23 21° NNW 06:02:37 10° NE
[s.n.46711] 4.2 05:58:19 10° WNW 06:00:32 21° NNW 06:02:45 10° NE
[s.n.46684] 4.2 05:58:21 10° WNW 06:00:34 21° NNW 06:02:48 10° NE
[s.n.46706] 4.2 05:58:30 10° WNW 06:00:43 21° NNW 06:02:56 10° NE
[s.n.46678] 4.2 05:58:28 10° WNW 06:00:44 22° NNW 06:03:02 10° NE
[s.n.46677] 4.2 05:58:38 10° WNW 06:00:51 21° NNW 06:03:04 10° NE
[s.n.46671] 4.2 05:58:44 10° WNW 06:00:56 21° NNW 06:03:10 10° NE
[s.n.46675] 4.2 05:58:49 10° WNW 06:01:02 21° NNW 06:03:15 10° NE
[s.n.46674] 4.2 05:58:55 10° WNW 06:01:08 21° NNW 06:03:21 10° NE
[s.n.46698] 4.2 05:59:01 10° WNW 06:01:13 21° NNW 06:03:26 10° NE
Cosmos 2333 Rocket 4.4 05:57:00 10° N 06:01:14 21° NE 06:05:26 10° E
[s.n.46699] 4.2 05:59:02 10° WNW 06:01:18 22° NNW 06:03:34 10° NE
[s.n.46715] 4.2 05:59:12 10° WNW 06:01:24 21° NNW 06:03:37 10° NE
[s.n.46714] 4.2 05:59:18 10° WNW 06:01:29 21° NNW 06:03:43 10° NE
[s.n.46726] 4.2 05:59:22 10° WNW 06:01:35 21° NNW 06:03:48 10° NE
[s.n.46703] 4.2 05:59:28 10° WNW 06:01:41 21° NNW 06:03:53 10° NE
[s.n.46713] 4.2 05:59:34 10° WNW 06:01:46 21° NNW 06:03:59 10° NE
[s.n.46717] 4.2 05:59:39 10° WNW 06:01:52 21° NNW 06:04:05 10° NE
[s.n.46691] 4.2 05:59:41 10° WNW 06:01:57 21° NNW 06:04:13 10° NE
[s.n.46693] 4.2 05:59:51 10° WNW 06:02:03 21° NNW 06:04:16 10° NE
[s.n.46672] 4.2 05:59:57 10° WNW 06:02:09 21° NNW 06:04:22 10° NE
[s.n.46701] 4.2 06:00:02 10° WNW 06:02:14 21° NNW 06:04:26 10° NE
[s.n.46685] 4.2 06:00:07 10° WNW 06:02:19 21° NNW 06:04:32 10° NE
Cosmos 1626 Rocket 3.7 05:57:56 10° SSW 06:02:19 57° W 06:06:45 10° N
[s.n.46709] 4.2 06:00:13 10° WNW 06:02:25 21° NNW 06:04:38 10° NE
[s.n.46683] 4.2 06:00:18 10° WNW 06:02:30 21° NNW 06:04:42 10° NE
[s.n.46695] 4.2 06:00:23 10° WNW 06:02:35 21° NNW 06:04:48 10° NE
YAOGAN 6 2.9 05:58:58 10° NNE 06:02:40 73° ESE 06:06:18 10° S
[s.n.46688] 4.2 06:00:30 10° WNW 06:02:42 21° NNW 06:04:54 10° NE
[s.n.46729] 4.2 06:00:34 10° WNW 06:02:46 21° NNW 06:04:59 10° NE
[s.n.46697] 4.2 06:00:38 10° WNW 06:02:50 21° NNW 06:05:02 10° NE
Meteor 2-1 Rocket 4.3 05:57:15 10° NNW 06:02:52 64° W 06:08:33 10° S
[s.n.46725] 4.2 06:00:43 10° WNW 06:02:54 21° NNW 06:05:07 10° NNE
[s.n.46682] 4.2 06:00:48 10° WNW 06:03:00 21° NNW 06:05:13 10° NE
CZ-4B R/B 3.7 05:59:25 10° N 06:03:00 30° WNW 06:06:42 10° SW
[s.n.46680] 4.2 06:00:54 10° WNW 06:03:06 21° NNW 06:05:18 10° NE
[s.n.46718] 4.2 06:01:00 10° WNW 06:03:12 21° NNW 06:05:24 10° NE
[s.n.46710] 4.2 06:01:05 10° WNW 06:03:17 21° NNW 06:05:29 10° NE
Spot 2 4.3 05:58:48 10° N 06:03:20 68° WNW 06:08:07 10° SSW
[s.n.46673] 4.2 06:01:17 10° WNW 06:03:28 21° NNW 06:05:41 10° NE
Cosmos 1697 Rocket 4.3 06:00:53 10° WNW 06:03:29 13° W 06:06:05 10° SW
[s.n.46700] 4.2 06:01:23 10° WNW 06:03:34 21° NNW 06:05:46 10° NNE
[s.n.46705] 4.2 06:01:28 10° WNW 06:03:39 21° NNW 06:05:52 10° NNE
[s.n.46692] 4.2 06:01:34 10° WNW 06:03:46 21° NNW 06:05:57 10° NNE
[s.n.46686] 4.2 06:01:39 10° WNW 06:03:51 21° NNW 06:06:03 10° NNE
[s.n.46716] 4.2 06:01:45 10° WNW 06:03:57 21° NNW 06:06:08 10° NNE
[s.n.46722] 4.2 06:01:51 10° WNW 06:04:02 21° NNW 06:06:14 10° NNE
[s.n.46689] 4.2 06:01:57 10° WNW 06:04:08 21° NNW 06:06:20 10° NNE
[s.n.46681] 4.2 06:02:02 10° WNW 06:04:13 21° NNW 06:06:25 10° NNE
Uosat 12 SS-18 rocket 4.3 05:59:39 10° SSW 06:04:25 82° ESE 06:08:46 10° NE
Cosmos 1023 Rocket 4.4 05:59:32 10° SSW 06:04:37 72° WNW 06:09:43 10° NNE
Lacrosse 5 rocket 3.0 06:02:12 10° WNW 06:04:42 17° NNW 06:07:16 10° NNE
Cosmos 1602 Rocket 3.6 06:00:55 10° SSW 06:05:21 71° W 06:09:49 10° N
